Weather History for KDFI - October, 2010

Change the Weather History Date:

Saturday, October 23, 2010

  Actual Average Record
Temperature  
Mean Temperature 58 °F -  
Max Temperature 66 °F 60 °F 82 °F (1963)
Min Temperature 50 °F 37 °F 24 °F (1969)
Degree Days  
Heating Degree Days 7    
Growing Degree Days 8 (Base 50)    
Moisture  
Dew Point 34 °F    
Average Humidity 41    
Maximum Humidity 48    
Minimum Humidity 34    
Precipitation  
Precipitation 0.00 in - - ()
Sea Level Pressure  
Sea Level Pressure 30.07 in    
Wind  
Wind Speed 7 mph (SSW)    
Max Wind Speed 13 mph    
Max Gust Speed 22 mph    
Visibility 10 miles    
Events Rain    
Averages and records for this station are not official NWS values.
T = Trace of Precipitation, MM = Missing Value Source: NWS Daily Summary

Daily Weather History Graph

Daily Weather History Graph

Search for Another Location

Airport or City:

Trip Planner

Search our weather history database for the weather conditions in past years. The results will help you decide how hot, cold, wet, or windy it might be!

Date:

Astronomy

Oct. 23, 2010 Rise Set
Actual Time 7:58 AM EDT 6:44 PM EDT
Civil Twilight 7:30 AM EDT 7:13 PM EDT
Nautical Twilight 6:58 AM EDT 7:45 PM EDT
Astronomical Twilight 6:26 AM EDT 8:17 PM EDT
Moon 6:45 PM EDT (10/23) 8:38 AM EDT (10/23)
Length of Visible Light 11h 42m
Length of Day
10h 46m
Full, 100% of the Moon is Illuminated
Oct 23
Full
Oct 30
Last Quarter
Nov 6
New
Nov 13
First Quarter
Nov 21
Full

Hourly Weather History & Observations

Time (EDT) Temp. Dew Point Humidity Pressure Visibility Wind Dir Wind Speed Gust Speed Precip Events Conditions
12:53 AM 50.0 °F 28.9 °F 44% 30.10 in 10.0 mi SSW 5.8 mph - N/A   Mostly Cloudy
1:53 AM 53.1 °F 28.9 °F 40% 30.09 in 10.0 mi SSW 8.1 mph - N/A   Mostly Cloudy
2:53 AM 53.1 °F 28.9 °F 40% 30.10 in 10.0 mi SSW 8.1 mph - N/A   Mostly Cloudy
3:53 AM 51.1 °F 30.0 °F 44% 30.09 in 10.0 mi SSW 5.8 mph - N/A   Mostly Cloudy
4:53 AM 50.0 °F 30.9 °F 48% 30.09 in 10.0 mi SSW 6.9 mph - N/A   Clear
5:53 AM 51.1 °F 30.9 °F 46% 30.09 in 10.0 mi SSW 8.1 mph - N/A   Clear
6:53 AM 52.0 °F 32.0 °F 47% 30.09 in 10.0 mi SSW 5.8 mph - N/A   Scattered Clouds
7:53 AM 53.1 °F 32.0 °F 45% 30.09 in 10.0 mi SSW 5.8 mph - N/A   Overcast
8:53 AM 54.0 °F 33.1 °F 45% 30.10 in 9.0 mi SSW 6.9 mph - N/A   Overcast
9:53 AM 55.9 °F 34.0 °F 44% 30.12 in 10.0 mi SSW 8.1 mph - N/A   Partly Cloudy
10:53 AM 57.0 °F 35.1 °F 44% 30.12 in 10.0 mi SSW 6.9 mph - N/A   Overcast
11:53 AM 62.1 °F 36.0 °F 38% 30.12 in 10.0 mi SSW 6.9 mph - N/A   Scattered Clouds
12:53 PM 63.0 °F 37.0 °F 38% 30.12 in 10.0 mi SSW 6.9 mph - N/A   Partly Cloudy
1:53 PM 64.9 °F 37.0 °F 36% 30.11 in 10.0 mi SSW 6.9 mph - 0.00 in Rain Light Rain
2:53 PM 64.9 °F 39.0 °F 39% 30.10 in 10.0 mi SSW 5.8 mph - 0.00 in   Clear
3:53 PM 64.0 °F 39.9 °F 41% 30.05 in 10.0 mi South 6.9 mph - 0.00 in   Clear
4:53 PM 64.9 °F 41.0 °F 42% 30.00 in 10.0 mi SSE 6.9 mph - N/A   Clear
5:53 PM 66.9 °F 39.9 °F 37% 29.98 in 10.0 mi South 12.7 mph 21.9 mph N/A   Clear
6:53 PM 66.0 °F 37.9 °F 36% 29.99 in 10.0 mi SSW 10.4 mph - N/A   Clear
7:53 PM 64.0 °F 37.0 °F 37% 30.01 in 10.0 mi SSW 9.2 mph - N/A   Clear
8:53 PM 63.0 °F 34.0 °F 34% 30.01 in 10.0 mi SSW 5.8 mph - N/A   Clear
9:53 PM 62.1 °F 34.0 °F 35% 30.01 in 10.0 mi SSW 6.9 mph - N/A   Partly Cloudy
10:53 PM 59.0 °F 34.0 °F 39% 30.01 in 10.0 mi SSW 5.8 mph - N/A   Clear
11:53 PM 57.9 °F 35.1 °F 42% 30.01 in 10.0 mi South 4.6 mph - N/A   Clear